Location: Morrison Planetarium
(37.7700°N, 122.4659°W)
Time: 15:17:23
(UTC-07:00)

N. Korean satellite - Pass Details

Date: 31 March 2019
Orbit: 457 x 508 km, 97.2° (Epoch: 17 April)

Event Time Altitude Azimuth Distance (km) Brightness Sun altitude
Rises 06:29:39 0° 28° (NNE) 2,563 10.8 -6.2°
Reaches altitude 10° 06:32:09 10° 46° (NE) 1,687 10.3 -5.7°
Maximum altitude 06:34:52 20° 95° (E) 1,201 9.8 -5.1°
Drops below altitude 10° 06:37:35 10° 144° (SE) 1,696 9.7 -4.6°
Sets 06:40:06 0° 161° (SSE) 2,582 10.4 -4.1°
